Date,TemperatureHighF,TemperatureAvgF,TemperatureLowF,DewpointHighF,DewpointAvgF,DewpointLowF,HumidityHigh,HumidityAvg,HumidityLow,PressureMaxIn,PressureMinIn,WindSpeedMaxMPH,WindSpeedAvgMPH,GustSpeedMaxMPH,PrecipitationSumIn
2013-1-1,72.0,69.1,66.0,66.0,62.6,59.0,86,80,67,0.00,40.00,16,10,44,0.32
2013-1-2,74.0,70.2,68.0,65.0,62.9,61.0,86,78,69,0.00,40.00,16,12,40,0.04
2013-1-3,74.0,69.1,66.0,66.0,64.6,60.0,96,85,75,0.00,40.00,15,8,46,0.56
2013-1-4,74.0,63.0,66.0,65.0,30.8,-99.9,85,63,68,0.00,40.00,18,10,47,0.25
2013-1-5,75.0,70.0,67.0,65.0,62.4,59.0,84,77,68,0.00,40.00,11,8,38,0.18
2013-1-6,79.0,72.0,69.0,64.0,60.8,56.0,77,68,56,0.00,40.00,16,9,45,0.01
2013-1-7,76.0,70.8,68.0,65.0,61.2,59.0,78,72,63,0.00,40.00,16,8,45,0.01
2013-1-8,78.0,70.8,68.0,63.0,61.1,59.0,81,72,59,0.00,40.00,12,7,40,0.00
2013-1-9,79.0,72.3,68.0,63.0,61.8,60.0,82,70,55,0.00,40.00,15,8,39,0.01
2013-1-10,82.0,72.8,65.0,62.0,59.0,55.0,76,63,44,0.00,40.00,14,6,36,0.01
2013-1-11,83.0,72.8,68.0,62.0,59.2,57.0,76,63,43,0.00,40.00,15,6,37,0.00
2013-1-12,80.0,71.3,64.0,67.0,62.4,59.0,91,75,59,0.00,40.00,8,4,20,0.00
2013-1-13,83.0,70.8,63.0,66.0,62.9,60.0,93,78,50,0.00,40.00,8,5,18,0.01
2013-1-14,73.0,69.3,64.0,69.0,64.9,60.0,97,86,66,0.00,40.00,11,6,28,1.21
2013-1-15,79.0,68.1,58.0,62.0,57.6,51.0,93,72,40,0.00,40.00,11,6,20,0.01
2013-1-16,80.0,66.7,58.0,61.0,54.9,50.0,87,68,45,0.00,40.00,10,5,38,0.00
2013-1-17,79.0,66.8,58.0,59.0,55.9,53.0,92,71,40,0.00,40.00,10,6,20,0.00
2013-1-18,79.0,67.5,59.0,60.0,56.4,51.0,87,69,43,0.00,40.00,12,6,25,0.00
2013-1-19,74.0,66.9,61.0,56.0,52.7,50.0,72,60,47,0.00,40.00,14,6,35,0.00
2013-1-20,76.0,68.4,62.0,55.0,52.5,45.0,73,58,36,0.00,40.00,9,6,34,0.00
2013-1-21,79.0,69.8,64.0,59.0,56.5,53.0,71,63,49,0.00,40.00,11,7,42,0.00
2013-1-22,82.0,72.0,66.0,60.0,57.3,52.0,74,61,40,0.00,40.00,10,5,26,0.00
2013-1-23,77.0,69.5,64.0,65.0,60.2,55.0,93,73,60,0.00,40.00,8,5,25,0.02
2013-1-24,72.0,66.7,62.0,67.0,63.5,59.0,97,89,80,0.00,40.00,7,4,11,0.14
2013-1-25,80.0,68.2,60.0,65.0,61.2,57.0,93,80,54,0.00,40.00,9,5,17,0.02
2013-1-26,81.0,67.6,60.0,66.0,62.2,59.0,95,84,57,0.00,40.00,10,5,24,0.16
2013-1-27,75.0,68.2,62.0,68.0,65.0,60.0,96,89,79,0.00,40.00,12,7,26,2.90
2013-1-28,75.0,67.0,63.0,66.0,63.2,61.0,97,88,69,0.00,40.00,7,4,19,2.10
2013-1-29,79.0,68.1,61.0,65.0,61.7,57.0,95,81,57,0.00,40.00,8,5,16,0.01
2013-1-30,82.0,68.6,59.0,67.0,61.2,57.0,92,79,52,0.00,40.00,7,5,15,0.06
2013-1-31,78.0,71.7,64.0,62.0,58.9,57.0,80,65,52,0.00,40.00,14,8,37,0.04
2013-2-1,81.0,71.6,65.0,58.0,53.0,36.0,68,54,24,0.00,40.00,17,10,46,0.01
2013-2-2,80.0,71.0,61.0,60.0,57.8,55.0,88,64,45,0.00,40.00,12,7,37,0.01
2013-2-3,80.0,68.3,59.0,62.0,57.1,51.0,93,70,46,0.00,40.00,11,7,40,0.00
2013-2-4,74.0,68.8,66.0,63.0,57.0,54.0,80,66,52,0.00,40.00,11,7,39,0.01
2013-2-5,75.0,69.1,64.0,62.0,57.5,54.0,92,68,50,0.00,40.00,12,6,32,0.04
2013-2-6,77.0,69.9,67.0,63.0,59.9,57.0,79,71,57,0.00,40.00,14,10,36,0.07
2013-2-7,80.0,71.6,66.0,63.0,60.3,58.0,76,68,54,0.00,40.00,10,7,29,0.02
2013-2-8,82.0,72.6,62.0,64.0,60.4,55.0,81,66,48,0.00,40.00,10,5,25,0.01
2013-2-9,79.0,69.4,60.0,61.0,57.0,53.0,89,67,44,0.00,40.00,9,6,28,0.01
2013-2-10,74.0,70.0,67.0,65.0,60.1,56.0,84,71,58,0.00,40.00,13,7,40,0.05
2013-2-11,76.0,70.3,66.0,65.0,60.1,57.0,82,70,62,0.00,40.00,16,10,39,0.02
2013-2-12,74.0,67.7,65.0,59.0,55.8,53.0,71,66,55,0.00,40.00,10,6,33,0.00
2013-2-13,77.0,68.7,64.0,57.0,54.2,53.0,73,61,44,0.00,40.00,9,5,37,0.00
2013-2-14,79.0,68.5,60.0,58.0,54.9,52.0,77,63,45,0.00,40.00,7,5,24,0.00
2013-2-15,82.0,71.5,65.0,61.0,57.3,55.0,74,62,42,0.00,40.00,13,7,38,0.00
2013-2-16,76.0,70.1,64.0,61.0,56.9,52.0,86,64,48,0.00,40.00,16,10,53,0.03
2013-2-17,79.0,69.7,66.0,60.0,55.9,53.0,82,62,45,0.00,40.00,12,8,51,0.01
2013-2-18,78.0,69.5,66.0,59.0,54.9,52.0,78,60,48,0.00,40.00,17,10,51,0.01
2013-2-19,75.0,67.7,63.0,63.0,57.0,53.0,84,69,48,0.00,40.00,9,7,39,0.17
2013-2-20,76.0,69.5,66.0,61.0,58.2,55.0,80,68,53,0.00,40.00,14,9,47,0.03
2013-2-21,70.0,68.1,66.0,64.0,60.4,56.0,86,77,66,0.00,40.00,14,8,45,1.36
2013-2-22,73.0,68.5,65.0,62.0,60.8,59.0,83,76,65,0.00,40.00,16,10,42,0.23
2013-2-23,76.0,69.9,66.0,62.0,59.5,58.0,80,70,57,0.00,40.00,14,10,42,0.01
2013-2-24,79.0,69.8,66.0,60.0,57.3,55.0,79,65,51,0.00,40.00,12,7,40,0.01
2013-2-25,77.0,70.1,66.0,62.0,57.2,55.0,80,64,49,0.00,40.00,16,9,47,0.01
2013-2-26,76.0,69.5,66.0,62.0,58.6,56.0,83,69,56,0.00,40.00,16,8,43,0.05
2013-2-27,78.0,69.8,64.0,60.0,56.0,52.0,83,63,41,0.00,40.00,10,6,35,0.08
2013-2-28,78.0,69.7,64.0,59.0,55.3,51.0,71,61,41,0.00,40.00,10,7,42,0.01
2013-3-1,75.0,69.2,65.0,59.0,55.5,53.0,71,62,51,0.00,40.00,10,7,42,0.05
2013-3-2,78.0,70.1,66.0,58.0,54.3,50.0,72,58,39,0.00,40.00,13,8,32,0.02
2013-3-3,77.0,69.3,64.0,56.0,52.3,48.0,66,56,41,0.00,40.00,12,7,33,0.01
2013-3-4,78.0,69.1,64.0,58.0,53.3,51.0,66,58,43,0.00,40.00,10,6,27,0.01
2013-3-5,80.0,69.6,63.0,58.0,53.4,50.0,70,58,36,0.00,40.00,9,6,27,0.01
2013-3-6,79.0,69.9,60.0,62.0,58.3,54.0,84,68,51,0.00,40.00,9,5,19,0.00
2013-3-7,82.0,67.0,57.0,59.0,54.5,51.0,84,67,39,0.00,40.00,8,6,19,0.01
2013-3-8,80.0,68.6,56.0,63.0,55.2,45.0,90,67,29,0.00,40.00,9,6,22,0.01
2013-3-9,79.0,70.7,65.0,67.0,63.5,61.0,95,79,59,0.00,40.00,13,6,25,0.67
2013-3-10,69.0,65.1,61.0,66.0,63.7,58.0,98,95,90,0.00,40.00,5,2,11,1.50
2013-3-11,81.0,67.6,58.0,65.0,58.9,57.0,96,77,44,0.00,40.00,9,6,16,0.01
2013-3-12,79.0,68.8,60.0,63.0,57.9,52.0,91,70,42,0.00,40.00,9,6,25,0.01
2013-3-13,78.0,66.6,59.0,61.0,56.6,54.0,88,72,44,0.00,40.00,8,5,18,0.00
2013-3-14,80.0,67.1,59.0,61.0,56.8,53.0,90,72,47,0.00,40.00,6,5,14,0.00
2013-3-15,74.0,65.9,60.0,61.0,57.5,56.0,90,76,57,0.00,40.00,9,5,20,0.00
2013-3-16,73.0,66.6,63.0,58.0,54.1,50.0,79,65,48,0.00,40.00,11,8,28,0.00
2013-3-17,73.0,64.9,58.0,58.0,53.9,50.0,92,69,44,0.00,40.00,10,5,20,0.14
2013-3-18,76.0,64.8,55.0,57.0,54.3,52.0,90,71,45,0.00,40.00,7,5,15,0.02
2013-3-19,81.0,67.8,57.0,64.0,57.6,53.0,91,72,45,0.00,40.00,9,5,22,0.02
2013-3-20,82.0,70.1,59.0,63.0,59.5,54.0,94,73,38,0.00,40.00,9,6,21,0.02
2013-3-21,84.0,72.2,63.0,68.0,61.6,55.0,84,70,50,0.00,40.00,9,6,21,0.02
2013-3-22,76.0,71.1,66.0,68.0,65.6,63.0,95,83,68,0.00,40.00,9,4,16,0.15
2013-3-23,76.0,68.9,65.0,66.0,61.6,60.0,97,78,63,0.00,40.00,12,7,33,0.18
2013-3-24,70.0,68.2,63.0,67.0,62.8,60.0,94,83,75,0.00,40.00,11,6,31,0.11
2013-3-25,82.0,70.2,60.0,67.0,62.0,56.0,92,77,52,0.00,40.00,9,5,18,0.01
2013-3-26,79.0,69.9,62.0,67.0,63.1,60.0,94,80,57,0.00,40.00,6,4,12,0.02
2013-3-27,71.0,67.5,64.0,65.0,63.4,59.0,91,87,80,0.00,40.00,11,5,52,0.79
2013-3-28,79.0,73.7,68.0,61.0,59.5,58.0,73,61,52,0.00,40.00,15,9,40,0.07
2013-3-29,78.0,69.9,63.0,62.0,60.3,59.0,89,72,58,0.00,40.00,11,7,34,0.02
2013-3-30,79.0,70.0,62.0,65.0,58.6,-99.9,93,73,49,0.00,40.00,13,6,28,0.01
2013-3-31,72.0,65.2,58.0,56.0,50.8,47.0,74,60,46,0.00,40.00,11,7,30,0.01
2013-4-1,70.0,64.7,60.0,59.0,53.8,51.0,79,68,56,0.00,40.00,10,6,24,0.02
2013-4-2,76.0,66.6,62.0,55.0,52.1,48.0,73,61,38,0.00,40.00,11,6,21,0.01
2013-4-3,78.0,68.2,61.0,60.0,55.8,51.0,85,66,49,0.00,40.00,9,5,20,0.01
2013-4-4,83.0,69.4,59.0,62.0,58.3,54.0,89,70,42,0.00,40.00,9,5,20,0.01
2013-4-5,81.0,71.2,62.0,61.0,58.2,55.0,83,65,41,0.00,40.00,10,5,20,0.00
2013-4-6,85.0,74.4,67.0,69.0,63.4,60.0,86,70,54,0.00,40.00,9,5,26,0.00
2013-4-7,84.0,72.2,63.0,69.0,63.2,60.0,92,75,50,0.00,40.00,8,6,17,0.00
2013-4-8,84.0,74.2,67.0,64.0,61.0,57.0,89,65,44,0.00,40.00,9,5,23,0.00
2013-4-9,82.0,73.6,66.0,66.0,60.7,58.0,79,65,47,0.00,40.00,9,5,19,0.02
2013-4-10,84.0,74.5,67.0,65.0,61.2,56.0,80,64,49,0.00,40.00,9,5,23,0.02
2013-4-11,86.0,73.9,63.0,67.0,63.6,60.0,90,72,46,0.00,40.00,8,5,20,0.00
2013-4-12,81.0,72.4,65.0,66.0,63.6,60.0,89,75,55,0.00,40.00,11,5,19,0.00
2013-4-13,83.0,71.1,65.0,68.0,64.1,59.0,92,79,52,0.00,40.00,9,5,20,0.01
2013-4-14,78.0,70.2,67.0,69.0,67.3,63.0,98,91,70,0.00,40.00,10,5,20,1.26
2013-4-15,77.0,70.7,66.0,70.0,66.4,64.0,98,87,71,0.00,40.00,8,4,16,0.44
2013-4-16,83.0,72.5,63.0,69.0,64.9,61.0,93,78,53,0.00,40.00,8,5,17,0.00
2013-4-17,83.0,73.9,65.0,67.0,62.7,59.0,85,69,54,0.00,40.00,10,5,28,0.00
2013-4-18,84.0,73.6,68.0,65.0,62.3,60.0,84,69,48,0.00,40.00,10,6,28,0.01
2013-4-19,80.0,72.2,67.0,69.0,64.0,58.0,84,75,66,0.00,40.00,12,5,30,0.04
2013-4-20,85.0,73.5,65.0,68.0,64.8,62.0,94,76,54,0.00,40.00,9,5,20,0.01
2013-4-21,79.0,71.1,64.0,68.0,64.8,62.0,95,82,59,0.00,40.00,9,4,17,0.04
2013-4-22,78.0,70.9,67.0,71.0,67.6,65.0,97,89,73,0.00,40.00,10,5,19,0.29
2013-4-23,82.0,73.2,68.0,70.0,67.0,64.0,95,82,59,0.00,40.00,7,4,17,0.01
2013-4-24,84.0,72.8,66.0,71.0,67.3,65.0,97,84,64,0.00,40.00,7,4,14,1.25
2013-4-25,84.0,74.5,66.0,66.0,62.3,58.0,92,67,48,0.00,40.00,12,5,31,0.02
2013-4-26,84.0,73.6,67.0,62.0,59.9,57.0,79,63,45,0.00,40.00,12,6,31,0.02
2013-4-27,84.0,72.8,64.0,66.0,61.8,57.0,88,69,45,0.00,40.00,8,5,18,0.01
2013-4-28,82.0,72.4,64.0,67.0,63.8,61.0,93,76,56,0.00,40.00,10,6,19,0.00
2013-4-29,84.0,74.0,69.0,69.0,67.5,66.0,93,81,57,0.00,40.00,10,5,21,0.00
2013-4-30,80.0,70.5,65.0,69.0,66.4,63.0,95,88,63,0.00,40.00,7,4,13,1.17
2013-5-1,85.0,73.3,64.0,69.0,63.5,60.0,95,73,49,0.00,40.00,8,5,22,0.01
2013-5-2,83.0,72.6,66.0,69.0,65.2,62.0,91,78,61,0.00,40.00,8,4,19,0.00
2013-5-3,82.0,71.5,63.0,65.0,62.6,59.0,89,75,55,0.00,40.00,9,5,17,0.02
2013-5-4,82.0,70.6,64.0,68.0,65.1,61.0,96,84,59,0.00,40.00,7,4,14,0.07
2013-5-5,73.0,68.7,66.0,69.0,67.1,65.0,98,95,82,0.00,40.00,8,4,20,1.99
2013-5-6,82.0,71.3,63.0,67.0,61.9,55.0,98,76,44,0.00,40.00,7,4,15,1.21
2013-5-7,83.0,71.7,62.0,64.0,61.0,57.0,91,71,50,0.00,40.00,7,5,16,0.01
2013-5-8,84.0,70.1,59.0,62.0,58.6,54.0,91,70,41,0.00,40.00,8,5,15,0.01
2013-5-9,86.0,73.8,64.0,68.0,63.6,58.0,90,72,51,0.00,40.00,7,4,15,0.00
2013-5-10,84.0,72.5,66.0,68.0,61.1,-99.9,92,74,56,0.00,40.00,10,6,25,0.00
2013-5-11,83.0,72.3,69.0,66.0,61.6,-99.9,82,72,55,0.00,40.00,12,9,32,0.00
2013-5-12,79.0,73.1,69.0,67.0,63.4,61.0,77,72,62,0.00,40.00,13,10,36,0.00
2013-5-13,81.0,74.3,68.0,68.0,65.2,62.0,92,74,60,0.00,40.00,13,7,38,0.04
2013-5-14,85.0,76.2,71.0,66.0,63.7,61.0,81,66,51,0.00,40.00,10,6,28,0.01
2013-5-15,84.0,75.3,70.0,66.0,63.0,61.0,76,66,51,0.00,40.00,10,6,26,0.01
2013-5-16,83.0,71.8,70.0,65.0,46.4,-99.9,81,64,45,0.00,40.00,12,8,37,0.01
2013-5-17,84.0,74.8,71.0,63.0,58.8,-99.9,77,62,45,0.00,40.00,12,7,30,0.01
2013-5-18,83.0,72.5,65.0,69.0,63.5,57.0,93,75,47,0.00,40.00,6,4,22,0.66
2013-5-19,82.0,72.1,62.0,66.0,62.9,60.0,94,75,57,0.00,40.00,12,6,25,0.08
2013-5-20,82.0,71.7,60.0,62.0,57.0,48.0,91,63,32,0.00,40.00,8,5,19,0.00
2013-5-21,83.0,70.6,59.0,64.0,59.0,52.0,91,69,43,0.00,40.00,7,5,18,0.03
2013-5-22,86.0,73.5,62.0,69.0,63.9,58.0,93,75,47,0.00,40.00,7,5,17,0.01
2013-5-23,87.0,74.5,66.0,68.0,64.4,62.0,91,73,46,0.00,40.00,7,5,16,0.00
2013-5-24,85.0,76.7,70.0,66.0,63.4,61.0,86,65,46,0.00,40.00,15,6,37,0.01
2013-5-25,81.0,75.1,70.0,67.0,63.5,60.0,73,68,54,0.00,40.00,16,7,42,0.01
2013-5-26,85.0,75.5,69.0,64.0,60.8,58.0,75,61,40,0.00,40.00,15,9,41,0.00
2013-5-27,83.0,75.4,71.0,63.0,60.8,58.0,72,61,45,0.00,40.00,11,8,35,0.00
2013-5-28,83.0,73.2,68.0,71.0,65.7,62.0,94,78,58,0.00,40.00,8,4,28,0.50
2013-5-29,83.0,72.0,65.0,71.0,66.7,63.0,93,84,58,0.00,40.00,7,4,15,0.07
2013-5-30,84.0,74.4,65.0,69.0,66.0,63.0,94,76,58,0.00,40.00,9,5,23,0.01
2013-5-31,83.0,76.1,70.0,71.0,66.3,63.0,87,72,56,0.00,40.00,7,5,26,0.01
2013-6-1,88.0,77.5,71.0,69.0,65.4,62.0,76,67,51,0.00,40.00,10,6,24,0.02
2013-6-2,85.0,76.7,71.0,69.0,65.8,61.0,90,70,55,0.00,40.00,15,6,36,0.00
2013-6-3,83.0,75.9,70.0,64.0,61.4,59.0,72,62,48,0.00,40.00,8,6,30,0.00
2013-6-4,85.0,76.3,70.0,64.0,62.7,60.0,76,64,48,0.00,40.00,10,6,29,0.00
2013-6-5,86.0,75.2,70.0,67.0,61.7,59.0,80,64,44,0.00,40.00,10,6,35,0.00
2013-6-6,83.0,74.9,70.0,63.0,60.5,59.0,73,61,45,0.00,40.00,12,6,40,0.00
2013-6-7,81.0,74.3,70.0,64.0,61.6,60.0,74,65,51,0.00,40.00,9,6,27,0.00
2013-6-8,83.0,74.9,68.0,64.0,60.9,59.0,88,63,46,0.00,40.00,11,7,35,0.02
2013-6-9,86.0,76.2,71.0,65.0,61.7,60.0,78,62,43,0.00,40.00,11,8,32,0.01
2013-6-10,83.0,75.3,69.0,64.0,62.2,61.0,78,65,48,0.00,40.00,11,6,27,0.00
2013-6-11,83.0,75.9,71.0,65.0,63.1,61.0,74,65,50,0.00,40.00,12,8,27,0.00
2013-6-12,87.0,75.9,70.0,66.0,63.1,60.0,85,66,41,0.00,40.00,12,7,36,0.01
2013-6-13,81.0,73.2,69.0,67.0,64.4,61.0,88,74,62,0.00,40.00,9,6,32,0.18
2013-6-14,81.0,73.8,69.0,66.0,63.0,61.0,86,70,54,0.00,40.00,12,8,37,0.19
2013-6-15,84.0,75.5,71.0,65.0,62.4,60.0,77,65,48,0.00,40.00,10,7,29,0.01
2013-6-16,86.0,75.9,71.0,64.0,61.6,59.0,75,63,42,0.00,40.00,12,7,32,0.01
2013-6-17,85.0,74.7,68.0,65.0,62.6,59.0,84,67,48,0.00,40.00,11,6,38,0.01
2013-6-18,88.0,75.3,69.0,68.0,64.2,62.0,86,70,47,0.00,40.00,10,6,29,0.01
2013-6-19,83.0,75.6,70.0,70.0,63.7,61.0,84,67,53,0.00,40.00,12,6,32,0.09